Weather History for Nakika, MS

Change the Weather History Date:

Wednesday, January 15, 2014

  Actual Average Record
Temperature  
Mean Temperature 58 °F -  
Max Temperature 64 °F - - ()
Min Temperature 53 °F - - ()
Degree Days  
Heating Degree Days 6    
Growing Degree Days 8 (Base 50)    
Moisture  
Dew Point 39 °F    
Average Humidity 50    
Maximum Humidity 63    
Minimum Humidity 38    
Precipitation  
Precipitation 0.00 in - - ()
Sea Level Pressure  
Sea Level Pressure 30.12 in    
Wind  
Wind Speed 12 mph (NW)    
Max Wind Speed 22 mph    
Max Gust Speed 31 mph    
Visibility 10 miles    
Events      
T = Trace of Precipitation, MM = Missing Value Source: NWS Daily Summary

Daily Weather History Graph

Daily Weather History Graph

Search for Another Location

Airport:

Trip Planner

Search our weather history database for the weather conditions in past years. The results will help you decide how hot, cold, wet, or windy it might be!

Date:

Astronomy

Jan. 15, 2014 Rise Set
Actual Time 6:46 AM CST 5:18 PM CST
Civil Twilight 6:21 AM CST 5:44 PM CST
Nautical Twilight 5:52 AM CST 6:13 PM CST
Astronomical Twilight 5:24 AM CST 6:41 PM CST
Moon 5:11 PM CST (1/15) 6:06 AM CST (1/15)
Length of Visible Light 11h 22m
Length of Day
10h 31m
Full, 100% of the Moon is Illuminated
Jan 15
Full
Jan 15
Full
Jan 23
Last Quarter
Jan 30
New
Feb 6
First Quarter

Hourly Weather History & Observations

Time (CST) Temp. Dew Point Humidity Pressure Visibility Wind Dir Wind Speed Gust Speed Precip Events Conditions
12:15 AM 60.8 °F 37.4 °F 42% 30.09 in - NW 6.9 mph 13.8 mph N/A   Clear
12:35 AM 60.8 °F 39.2 °F 45% 30.08 in 10.0 mi NW 10.4 mph 16.1 mph N/A   Clear
12:55 AM 60.8 °F 42.8 °F 52% 30.08 in 10.0 mi WNW 8.1 mph 17.3 mph N/A   Clear
1:15 AM 60.8 °F 41.0 °F 48% 30.08 in 10.0 mi WNW 9.2 mph - N/A   Clear
1:35 AM 60.8 °F 42.8 °F 52% 30.09 in 10.0 mi WNW 11.5 mph 19.6 mph N/A   Clear
1:55 AM 60.8 °F 42.8 °F 52% 30.09 in 10.0 mi NW 10.4 mph 19.6 mph N/A   Clear
2:15 AM 60.8 °F 44.6 °F 55% 30.08 in 10.0 mi WNW 12.7 mph 19.6 mph N/A   Clear
2:35 AM 60.8 °F 46.4 °F 59% 30.09 in 10.0 mi WNW 11.5 mph 18.4 mph N/A   Clear
2:55 AM 60.8 °F 46.4 °F 59% 30.09 in 10.0 mi NW 10.4 mph 19.6 mph N/A   Clear
3:15 AM 62.6 °F 48.2 °F 59% 30.09 in 10.0 mi NW 11.5 mph 19.6 mph N/A   Clear
3:35 AM 62.6 °F 46.4 °F 55% 30.09 in 10.0 mi NW 10.4 mph 18.4 mph N/A   Clear
3:55 AM 62.6 °F 42.8 °F 48% 30.09 in 10.0 mi NW 11.5 mph 18.4 mph N/A   Clear
4:15 AM 60.8 °F 41.0 °F 48% 30.08 in 10.0 mi NW 9.2 mph 18.4 mph N/A   Clear
4:35 AM 60.8 °F 41.0 °F 48% 30.08 in 10.0 mi NW 8.1 mph 17.3 mph N/A   Clear
4:55 AM 60.8 °F 39.2 °F 45% 30.08 in 10.0 mi NW 11.5 mph 19.6 mph N/A   Clear
5:15 AM 60.8 °F 41.0 °F 48% 30.09 in 10.0 mi WNW 9.2 mph 17.3 mph N/A   Clear
5:35 AM 60.8 °F 41.0 °F 48% 30.10 in 10.0 mi WNW 11.5 mph - N/A   Clear
5:55 AM 60.8 °F 41.0 °F 48% 30.10 in 10.0 mi NW 10.4 mph 19.6 mph N/A   Clear
6:15 AM 60.8 °F 41.0 °F 48% 30.10 in 10.0 mi WNW 9.2 mph 21.9 mph N/A   Clear
6:35 AM 60.8 °F 41.0 °F 48% 30.11 in 10.0 mi WNW 12.7 mph 18.4 mph N/A   Clear
6:55 AM 60.8 °F 41.0 °F 48% 30.12 in 10.0 mi WNW 11.5 mph 19.6 mph N/A   Clear
7:15 AM 62.6 °F 41.0 °F 45% 30.11 in 10.0 mi NW 12.7 mph - N/A   Clear
7:35 AM 62.6 °F 42.8 °F 48% 30.11 in 10.0 mi NW 16.1 mph 24.2 mph N/A   Clear
7:55 AM 62.6 °F 44.6 °F 52% 30.12 in 10.0 mi NW 11.5 mph 21.9 mph N/A   Clear
8:15 AM 64.4 °F 44.6 °F 49% 30.12 in 10.0 mi NW 11.5 mph 24.2 mph N/A   Clear
8:35 AM 64.4 °F 46.4 °F 52% 30.13 in 10.0 mi NW 11.5 mph 21.9 mph N/A   Clear
8:55 AM 64.4 °F 46.4 °F 52% 30.13 in 10.0 mi NW 12.7 mph 21.9 mph N/A   Clear
9:15 AM 64.4 °F 48.2 °F 56% 30.14 in 10.0 mi NW 15.0 mph 21.9 mph N/A   Clear
9:35 AM 64.4 °F 48.2 °F 56% 30.14 in 10.0 mi WNW 9.2 mph 18.4 mph N/A   Clear
9:55 AM 64.4 °F 46.4 °F 52% 30.14 in 10.0 mi Variable 6.9 mph 13.8 mph N/A   Clear
10:15 AM 64.4 °F 46.4 °F 52% 30.14 in 10.0 mi WNW 8.1 mph - N/A   Partly Cloudy
10:35 AM 64.4 °F 46.4 °F 52% 30.13 in 10.0 mi WNW 8.1 mph 15.0 mph N/A   Scattered Clouds
10:55 AM 60.8 °F 48.2 °F 63% 30.13 in 10.0 mi WNW 10.4 mph - N/A   Mostly Cloudy
11:15 AM 60.8 °F 46.4 °F 59% 30.12 in 10.0 mi WNW 9.2 mph 16.1 mph N/A   Mostly Cloudy
11:35 AM 59.0 °F 46.4 °F 63% 30.12 in 10.0 mi Variable 6.9 mph 16.1 mph N/A   Mostly Cloudy
11:55 AM 59.0 °F 46.4 °F 63% 30.11 in 10.0 mi NW 8.1 mph 20.7 mph N/A   Mostly Cloudy
12:15 PM 59.0 °F 44.6 °F 59% 30.11 in 10.0 mi WNW 9.2 mph - N/A   Overcast
12:35 PM 59.0 °F 42.8 °F 55% 30.09 in 10.0 mi Variable 6.9 mph 12.7 mph N/A   Mostly Cloudy
12:55 PM 59.0 °F 42.8 °F 55% 30.09 in 10.0 mi WNW 9.2 mph 21.9 mph N/A   Mostly Cloudy
1:15 PM 57.2 °F 41.0 °F 55% 30.09 in 10.0 mi WNW 9.2 mph 15.0 mph N/A   Mostly Cloudy
1:35 PM 57.2 °F 42.8 °F 59% 30.09 in 10.0 mi WNW 16.1 mph 27.6 mph N/A   Mostly Cloudy
1:55 PM 57.2 °F 44.6 °F 63% 30.09 in 10.0 mi NW 17.3 mph 29.9 mph N/A   Mostly Cloudy
2:15 PM 55.4 °F 41.0 °F 58% 30.09 in 10.0 mi WNW 15.0 mph 25.3 mph N/A   Mostly Cloudy
2:35 PM 55.4 °F 41.0 °F 58% 30.10 in 10.0 mi WNW 13.8 mph 28.8 mph N/A   Scattered Clouds
2:55 PM 55.4 °F 39.2 °F 54% 30.10 in 10.0 mi NW 19.6 mph 29.9 mph N/A   Partly Cloudy
3:15 PM 53.6 °F 37.4 °F 54% 30.11 in 10.0 mi NW 19.6 mph 29.9 mph N/A   Partly Cloudy
3:35 PM 53.6 °F 37.4 °F 54% 30.12 in 10.0 mi WNW 15.0 mph 27.6 mph N/A   Partly Cloudy
3:55 PM 53.6 °F 37.4 °F 54% 30.12 in 10.0 mi NW 17.3 mph 29.9 mph N/A   Partly Cloudy
4:15 PM 53.6 °F 37.4 °F 54% 30.12 in 10.0 mi NW 21.9 mph 28.8 mph N/A   Partly Cloudy
4:35 PM 53.6 °F 37.4 °F 54% 30.12 in 10.0 mi NW 13.8 mph 29.9 mph N/A   Scattered Clouds
4:55 PM 53.6 °F 37.4 °F 54% 30.13 in 10.0 mi NW 17.3 mph 26.5 mph N/A   Mostly Cloudy
5:15 PM 53.6 °F 37.4 °F 54% 30.13 in 10.0 mi NW 19.6 mph 26.5 mph N/A   Mostly Cloudy
5:35 PM 53.6 °F 37.4 °F 54% 30.13 in 10.0 mi NW 16.1 mph 26.5 mph N/A   Mostly Cloudy
5:55 PM 53.6 °F 33.8 °F 47% 30.14 in 10.0 mi NW 13.8 mph 29.9 mph N/A   Scattered Clouds
6:15 PM 53.6 °F 33.8 °F 47% 30.14 in 10.0 mi WNW 13.8 mph 26.5 mph N/A   Mostly Cloudy
6:35 PM 53.6 °F 32.0 °F 44% 30.15 in 10.0 mi WNW 10.4 mph 28.8 mph N/A   Mostly Cloudy
6:55 PM 53.6 °F 32.0 °F 44% 30.16 in 10.0 mi NW 20.7 mph 31.1 mph N/A   Scattered Clouds
7:15 PM 53.6 °F 30.2 °F 41% 30.16 in 10.0 mi NW 19.6 mph 27.6 mph N/A   Partly Cloudy
7:35 PM 53.6 °F 28.4 °F 38% 30.16 in 10.0 mi NW 13.8 mph 27.6 mph N/A   Clear
7:55 PM 53.6 °F 30.2 °F 41% 30.16 in 10.0 mi NW 18.4 mph 28.8 mph N/A   Partly Cloudy
8:15 PM 53.6 °F 28.4 °F 38% 30.16 in 10.0 mi NW 17.3 mph 27.6 mph N/A   Partly Cloudy
8:35 PM 53.6 °F 30.2 °F 41% 30.17 in 10.0 mi NW 18.4 mph 28.8 mph N/A   Partly Cloudy
8:55 PM 53.6 °F 30.2 °F 41% 30.18 in 10.0 mi NW 15.0 mph 25.3 mph N/A   Partly Cloudy
9:15 PM 53.6 °F 28.4 °F 38% 30.19 in 10.0 mi WNW 13.8 mph 26.5 mph N/A   Clear
9:35 PM 53.6 °F 30.2 °F 41% 30.19 in 10.0 mi NW 19.6 mph 27.6 mph N/A   Clear
9:55 PM 53.6 °F 30.2 °F 41% 30.19 in 10.0 mi NW 15.0 mph 28.8 mph N/A   Clear
10:15 PM 53.6 °F 30.2 °F 41% 30.19 in 10.0 mi WNW 12.7 mph 24.2 mph N/A   Partly Cloudy
10:35 PM 53.6 °F 28.4 °F 38% 30.19 in 10.0 mi NW 18.4 mph 26.5 mph N/A   Clear
10:55 PM 53.6 °F 32.0 °F 44% 30.19 in 10.0 mi NW 16.1 mph 27.6 mph N/A   Scattered Clouds
11:15 PM 53.6 °F 30.2 °F 41% 30.18 in 10.0 mi NW 12.7 mph 25.3 mph N/A   Scattered Clouds
11:35 PM 53.6 °F 32.0 °F 44% 30.18 in - NW 15.0 mph 23.0 mph N/A   Partly Cloudy
11:55 PM 53.6 °F 30.2 °F 41% 30.18 in 10.0 mi NW 9.2 mph 26.5 mph N/A   Partly Cloudy